This is the latest recevied weather packets stored in our database for station/object KI7JYE. If no packets are shown the sender has not sent any weather packets the latest 10 day(s).
| Time | Temp. | Humidity | Pressure | Rain* | Wind** | Luminosity | Snow |
|---|---|---|---|---|---|---|---|
| 1777850709 | 32.22° C | 28% | 1006.3 hPa | 0 mm | - | 441 W/m² | - |
| 1777850406 | 32.78° C | 27% | 1006.2 hPa | 0 mm | - | 461 W/m² | - |
| 1777850104 | 33.33° C | 26% | 1006 hPa | 0 mm | - | 481 W/m² | - |
| 1777849800 | 32.78° C | 28% | 1006.3 hPa | 0 mm | - | 481 W/m² | - |
| 1777849497 | 32.78° C | 26% | 1006.3 hPa | 0 mm | - | 491 W/m² | - |
| 1777849194 | 32.78° C | 26% | 1006.5 hPa | 0 mm | - | 504 W/m² | - |
| 1777848891 | 32.78° C | 27% | 1006.5 hPa | 0 mm | - | 523 W/m² | - |
| 1777848586 | 32.78° C | 26% | 1006.5 hPa | 0 mm | - | 534 W/m² | - |
| 1777848284 | 32.78° C | 28% | 1006.5 hPa | 0 mm | - | 538 W/m² | - |
| 1777847982 | 32.22° C | 28% | 1006.5 hPa | 0 mm | - | 542 W/m² | - |
| 1777847679 | 32.78° C | 29% | 1006.8 hPa | 0 mm | - | 554 W/m² | - |
| 1777847374 | 33.33° C | 28% | 1006.9 hPa | 0 mm | - | 547 W/m² | - |
| 1777847073 | 32.78° C | 30% | 1007 hPa | 0 mm | - | 554 W/m² | - |
| 1777846771 | 32.22° C | 29% | 1007 hPa | 0 mm | - | 567 W/m² | - |
| 1777846469 | 32.22° C | 30% | 1007.1 hPa | 0 mm | - | 578 W/m² | - |
| 1777846166 | 32.22° C | 30% | 1007.2 hPa | 0 mm | - | 589 W/m² | - |
| 1777845862 | 32.78° C | 31% | 1007.1 hPa | 0 mm | - | 592 W/m² | - |
| 1777845559 | 31.67° C | 30% | 1007.3 hPa | 0 mm | - | 599 W/m² | - |
| 1777845256 | 32.22° C | 32% | 1007.3 hPa | 0 mm | - | 610 W/m² | - |
| 1777844954 | 32.22° C | 31% | 1007.5 hPa | 0 mm | - | 581 W/m² | - |
| 1777844651 | 32.22° C | 33% | 1007.5 hPa | 0 mm | - | 501 W/m² | - |
| 1777844349 | 32.22° C | 34% | 1007.6 hPa | 0 mm | - | 441 W/m² | - |
| 1777844046 | 32.22° C | 34% | 1007.5 hPa | 0 mm | - | 529 W/m² | - |
| 1777843742 | 32.22° C | 33% | 1007.7 hPa | 0 mm | - | 580 W/m² | - |
| 1777843440 | 31.67° C | 30% | 1007.9 hPa | 0 mm | - | 598 W/m² | - |
* Rain latest hour (hover to see other rain measurements)
** Current wind speed in m/s (hover to see current wind gust speed)